| time (UTC) | temp C | wind direction | speed KPH | gust KPH | rain 1hr cm | rain 24hr cm | rain mn cm | humidity % | barometer mb |
| 20260906230724 | 22 | 51 | 1.6 | 4.8 | 0.00 | 1.14 | 1.14 | 72 | 1014.1 |
| 20260906230223 | 22 | 51 | 0.0 | 3.2 | 0.00 | 1.14 | 1.14 | 73 | 1014.3 |
| 20260906225723 | 22 | 51 | 0.0 | 1.6 | 0.00 | 1.14 | 1.14 | 72 | 1014.1 |
| 20260906225224 | 22 | 51 | 0.0 | 1.6 | 0.00 | 1.14 | 1.14 | 72 | 1014.0 |
| 20260906224722 | 22 | 51 | 0.0 | 1.6 | 0.00 | 1.14 | 1.14 | 72 | 1014.2 |
| 20260906224223 | 22 | 51 | 1.6 | 4.8 | 0.00 | 1.14 | 1.14 | 70 | 1014.3 |
| 20260906223724 | 22 | 51 | 1.6 | 4.8 | 0.00 | 1.14 | 1.14 | 71 | 1014.4 |
| 20260906223220 | 22 | 51 | 1.6 | 8.0 | 0.00 | 1.14 | 1.14 | 70 | 1014.3 |
| 20260906222732 | 22 | 51 | 1.6 | 8.0 | 0.00 | 1.14 | 1.14 | 70 | 1014.3 |
| 20260906222219 | 22 | 51 | 1.6 | 6.4 | 0.03 | 1.14 | 1.14 | 70 | 1014.3 |
| 20260906221950 | 22 | 51 | 1.6 | 6.4 | 0.03 | 1.14 | 1.14 | 71 | 1014.2 |
| 20260906221214 | 22 | 51 | 1.6 | 4.8 | 0.03 | 1.14 | 1.14 | 70 | 1014.3 |
| 20260906220716 | 22 | 51 | 1.6 | 8.0 | 0.03 | 1.14 | 1.14 | 69 | 1014.3 |
| 20260906220215 | 21 | 51 | 3.2 | 8.0 | 0.03 | 1.14 | 1.14 | 70 | 1014.3 |
| 20260906215715 | 21 | 51 | 4.8 | 8.0 | 0.05 | 1.14 | 1.14 | 70 | 1014.3 |
| 20260906215212 | 21 | 50 | 3.2 | 8.0 | 0.05 | 1.14 | 1.14 | 70 | 1014.4 |
| 20260906214942 | 21 | 50 | 3.2 | 6.4 | 0.05 | 1.14 | 1.14 | 72 | 1014.7 |
| 20260906214211 | 21 | 50 | 1.6 | 6.4 | 0.05 | 1.14 | 1.14 | 72 | 1014.6 |
| 20260906213712 | 21 | 50 | 1.6 | 6.4 | 0.08 | 1.14 | 1.14 | 71 | 1014.5 |
| 20260906213207 | 21 | 50 | 3.2 | 6.4 | 0.08 | 1.14 | 1.14 | 70 | 1014.7 |
| 20260906212707 | 21 | 50 | 4.8 | 8.0 | 0.08 | 1.14 | 1.14 | 69 | 1014.8 |
| 20260906212208 | 21 | 50 | 4.8 | 9.7 | 0.05 | 1.12 | 1.12 | 71 | 1014.9 |
| 20260906211708 | 21 | 49 | 3.2 | 9.7 | 0.05 | 1.12 | 1.12 | 73 | 1015.1 |
| 20260906211216 | 21 | 49 | 1.6 | 8.0 | 0.05 | 1.12 | 1.12 | 73 | 1014.9 |
| 20260906210704 | 20 | 49 | 1.6 | 4.8 | 0.05 | 1.12 | 1.12 | 73 | 1015.2 |
| 20260906210203 | 20 | 49 | 1.6 | 8.0 | 0.03 | 1.09 | 1.12 | 74 | 1015.1 |
| 20260906205703 | 20 | 49 | 3.2 | 8.0 | 0.03 | 1.09 | 1.09 | 75 | 1015.3 |
| 20260906205159 | 20 | 49 | 4.8 | 9.7 | 0.03 | 1.09 | 1.09 | 75 | 1015.3 |
| 20260906204659 | 20 | 49 | 6.4 | 12.9 | 0.03 | 1.09 | 1.09 | 75 | 1015.1 |
| 20260906204159 | 20 | 48 | 8.0 | 14.5 | 0.03 | 1.09 | 1.09 | 75 | 1015.3 |
| 20260906203659 | 20 | 26 | 9.7 | 14.5 | 0.03 | 1.07 | 1.07 | 75 | 1015.7 |
| 20260906203153 | 20 | 50 | 6.4 | 14.5 | 0.03 | 1.07 | 1.07 | 75 | 1015.9 |
| 20260906202656 | 20 | 74 | 3.2 | 11.3 | 0.03 | 1.07 | 1.07 | 74 | 1016.2 |
| 20260906202156 | 20 | 74 | 4.8 | 11.3 | 0.03 | 1.07 | 1.07 | 75 | 1016.1 |
| 20260906201655 | 20 | 74 | 4.8 | 17.7 | 0.05 | 1.07 | 1.07 | 75 | 1016.0 |
| 20260906201151 | 20 | 74 | 8.0 | 17.7 | 0.05 | 1.07 | 1.07 | 75 | 1015.9 |
| 20260906200651 | 20 | 72 | 9.7 | 20.9 | 0.08 | 1.07 | 1.07 | 75 | 1015.8 |
| 20260906200151 | 20 | 83 | 11.3 | 20.9 | 0.08 | 1.07 | 1.07 | 75 | 1015.6 |
| 20260906195651 | 20 | 80 | 9.7 | 17.7 | 0.10 | 1.07 | 1.07 | 76 | 1015.9 |
| 20260906195147 | 20 | 99 | 8.0 | 14.5 | 0.13 | 1.07 | 1.07 | 77 | 1016.2 |
| 20260906194647 | 20 | 107 | 6.4 | 14.5 | 0.18 | 1.07 | 1.07 | 76 | 1016.2 |
| 20260906194147 | 20 | 121 | 3.2 | 11.3 | 0.23 | 1.07 | 1.07 | 76 | 1016.3 |
| 20260906193647 | 20 | 122 | 1.6 | 8.0 | 0.23 | 1.04 | 1.04 | 77 | 1016.4 |
| 20260906193414 | 20 | 122 | 3.2 | 8.0 | 0.28 | 1.04 | 1.04 | 79 | 1016.4 |
| 20260906192916 | 19 | 122 | 4.8 | 8.0 | 0.30 | 1.04 | 1.04 | 80 | 1016.4 |
| 20260906192144 | 19 | 122 | 4.8 | 8.0 | 0.33 | 1.04 | 1.04 | 82 | 1016.8 |
| 20260906191644 | 19 | 122 | 4.8 | 8.0 | 0.33 | 1.02 | 1.02 | 82 | 1017.1 |
| 20260906191138 | 20 | 122 | 3.2 | 6.4 | 0.38 | 1.02 | 1.02 | 82 | 1017.5 |
| 20260906190640 | 20 | 122 | 3.2 | 6.4 | 0.41 | 0.99 | 0.99 | 82 | 1017.5 |
| 20260906190139 | 20 | 122 | 4.8 | 8.0 | 0.46 | 0.99 | 0.99 | 82 | 1017.4 |
| 20260906185640 | 20 | 122 | 3.2 | 8.0 | 0.48 | 0.97 | 0.97 | 82 | 1017.3 |
| 20260906185136 | 20 | 122 | 0.0 | 6.4 | 0.56 | 0.94 | 0.94 | 83 | 1017.8 |
| 20260906184636 | 20 | 122 | 1.6 | 3.2 | 0.56 | 0.89 | 0.89 | 83 | 1017.7 |
| 20260906184138 | 20 | 123 | 1.6 | 4.8 | 0.51 | 0.84 | 0.86 | 83 | 1017.7 |
| 20260906183635 | 19 | 123 | 0.0 | 4.8 | 0.51 | 0.81 | 0.81 | 84 | 1017.7 |
| 20260906183131 | 19 | 122 | 1.6 | 4.8 | 0.48 | 0.76 | 0.76 | 84 | 1017.7 |
| 20260906182902 | 19 | 122 | 1.6 | 6.4 | 0.48 | 0.74 | 0.74 | 84 | 1017.6 |
| 20260906182131 | 20 | 123 | 3.2 | 6.4 | 0.51 | 0.71 | 0.71 | 84 | 1017.2 |
| 20260906181631 | 20 | 122 | 1.6 | 6.4 | 0.51 | 0.69 | 0.69 | 84 | 1017.2 |
| 20260906180627 | 19 | 123 | 0.0 | 3.2 | 0.43 | 0.58 | 0.61 | 84 | 1017.6 |
| 20260906180359 | 19 | 123 | 0.0 | 3.2 | 0.41 | 0.53 | 0.53 | 83 | 1017.7 |
| 20260906175624 | 19 | 123 | 0.0 | 3.2 | 0.36 | 0.48 | 0.48 | 83 | 1017.6 |
| 20260906175122 | 20 | 123 | 0.0 | 3.2 | 0.28 | 0.38 | 0.38 | 83 | 1017.5 |
| 20260906174854 | 19 | 123 | 0.0 | 3.2 | 0.23 | 0.33 | 0.33 | 83 | 1017.5 |
| 20260906174354 | 20 | 123 | 0.0 | 3.2 | 0.23 | 0.33 | 0.33 | 82 | 1017.2 |
| 20260906173623 | 20 | 123 | 0.0 | 3.2 | 0.20 | 0.30 | 0.30 | 83 | 1017.0 |
| 20260906173119 | 20 | 123 | 1.6 | 6.4 | 0.18 | 0.28 | 0.28 | 82 | 1016.9 |
| 20260906172619 | 20 | 123 | 3.2 | 6.4 | 0.18 | 0.25 | 0.25 | 81 | 1017.0 |
| 20260906172120 | 20 | 121 | 1.6 | 6.4 | 0.13 | 0.20 | 0.20 | 81 | 1017.1 |
| 20260906171620 | 20 | 121 | 3.2 | 4.8 | 0.10 | 0.18 | 0.18 | 81 | 1017.0 |
| 20260906171346 | 20 | 121 | 1.6 | 8.0 | 0.08 | 0.15 | 0.18 | 80 | 1016.9 |
| 20260906170846 | 20 | 121 | 0.0 | 8.0 | 0.08 | 0.15 | 0.15 | 80 | 1016.6 |
| 20260906170122 | 20 | 120 | 0.0 | 1.6 | 0.05 | 0.13 | 0.13 | 80 | 1016.4 |
| 20260906165615 | 20 | 120 | 0.0 | 0.0 | 0.05 | 0.13 | 0.13 | 79 | 1016.2 |
| 20260906165110 | 20 | 120 | 0.0 | 0.0 | 0.03 | 0.10 | 0.10 | 79 | 1016.0 |
| 20260906164612 | 20 | 120 | 0.0 | 3.2 | 0.03 | 0.10 | 0.10 | 78 | 1016.0 |
| 20260906164111 | 20 | 120 | 0.0 | 3.2 | 0.05 | 0.10 | 0.10 | 79 | 1016.1 |
| 20260906163612 | 20 | 120 | 0.0 | 3.2 | 0.05 | 0.10 | 0.10 | 79 | 1015.9 |
| 20260906163107 | 20 | 120 | 1.6 | 4.8 | 0.05 | 0.10 | 0.10 | 78 | 1015.8 |
| 20260906162838 | 20 | 120 | 1.6 | 4.8 | 0.03 | 0.08 | 0.08 | 78 | 1015.8 |
| 20260906162107 | 20 | 120 | 1.6 | 6.4 | 0.03 | 0.08 | 0.08 | 78 | 1015.8 |
| 20260906161840 | 20 | 120 | 3.2 | 14.5 | 0.03 | 0.08 | 0.08 | 78 | 1015.8 |
| 20260906161104 | 20 | 120 | 4.8 | 14.5 | 0.03 | 0.08 | 0.08 | 77 | 1015.8 |
| 20260906160834 | 20 | 103 | 3.2 | 11.3 | 0.05 | 0.08 | 0.08 | 77 | 1015.7 |
| 20260906160116 | 20 | 102 | 3.2 | 11.3 | 0.05 | 0.08 | 0.08 | 77 | 1015.6 |
| 20260906155603 | 20 | 100 | 3.2 | 11.3 | 0.05 | 0.08 | 0.08 | 76 | 1015.6 |
| 20260906155058 | 21 | 97 | 6.4 | 14.5 | 0.05 | 0.08 | 0.08 | 75 | 1015.3 |
| 20260906154559 | 21 | 96 | 6.4 | 16.1 | 0.05 | 0.08 | 0.08 | 74 | 1015.1 |
| 20260906154059 | 21 | 79 | 6.4 | 14.5 | 0.03 | 0.05 | 0.05 | 74 | 1014.7 |
| 20260906153831 | 21 | 315 | 4.8 | 9.7 | 0.03 | 0.05 | 0.05 | 75 | 1014.9 |
| 20260906153055 | 21 | 313 | 4.8 | 9.7 | 0.03 | 0.05 | 0.05 | 75 | 1014.9 |
| 20260906152555 | 21 | 312 | 4.8 | 9.7 | 0.03 | 0.05 | 0.05 | 75 | 1015.1 |
| 20260906152056 | 21 | 308 | 3.2 | 9.7 | 0.03 | 0.05 | 0.05 | 75 | 1015.1 |
| 20260906151555 | 21 | 307 | 3.2 | 6.4 | 0.03 | 0.05 | 0.05 | 74 | 1015.1 |
| 20260906151051 | 21 | 307 | 1.6 | 6.4 | 0.03 | 0.05 | 0.05 | 74 | 1015.2 |
| 20260906150552 | 21 | 307 | 1.6 | 6.4 | 0.00 | 0.03 | 0.03 | 73 | 1015.1 |
| 20260906150104 | 21 | 307 | 3.2 | 6.4 | 0.00 | 0.03 | 0.03 | 72 | 1015.1 |
| 20260906145823 | 21 | 307 | 3.2 | 6.4 | 0.00 | 0.03 | 0.03 | 72 | 1015.0 |
| 20260906145048 | 21 | 307 | 4.8 | 12.9 | 0.00 | 0.03 | 0.03 | 71 | 1015.0 |
| 20260906144547 | 21 | 307 | 8.0 | 12.9 | 0.00 | 0.03 | 0.03 | 70 | 1015.0 |
| 20260906144318 | 20 | 296 | 6.4 | 12.9 | 0.03 | 0.03 | 0.03 | 70 | 1015.0 |
| 20260906143547 | 20 | 279 | 4.8 | 11.3 | 0.03 | 0.03 | 0.03 | 70 | 1015.1 |
| 20260906143043 | 20 | 261 | 3.2 | 11.3 | 0.03 | 0.03 | 0.03 | 69 | 1015.2 |
| 20260906142543 | 20 | 259 | 4.8 | 11.3 | 0.03 | 0.03 | 0.03 | 69 | 1015.2 |
| 20260906142043 | 20 | 255 | 4.8 | 12.9 | 0.03 | 0.03 | 0.03 | 68 | 1015.3 |
| 20260906141544 | 21 | 251 | 4.8 | 12.9 | 0.03 | 0.03 | 0.03 | 67 | 1015.2 |
| 20260906141039 | 21 | 248 | 3.2 | 11.3 | 0.03 | 0.03 | 0.03 | 67 | 1015.2 |
| 20260906140539 | 21 | 244 | 3.2 | 9.7 | 0.03 | 0.03 | 0.03 | 66 | 1015.2 |
| 20260906140039 | 21 | 244 | 3.2 | 8.0 | 0.03 | 0.03 | 0.03 | 65 | 1015.1 |
| 20260906135539 | 21 | 244 | 1.6 | 8.0 | 0.03 | 0.03 | 0.03 | 64 | 1015.1 |
| 20260906135035 | 21 | 243 | 1.6 | 6.4 | 0.03 | 0.03 | 0.03 | 63 | 1015.1 |
| 20260906134535 | 22 | 243 | 3.2 | 6.4 | 0.00 | 0.00 | 0.03 | 62 | 1015.0 |
| 20260906134048 | 22 | 243 | 3.2 | 12.9 | 0.00 | 0.00 | 0.00 | 61 | 1014.9 |
| 20260906133806 | 22 | 243 | 6.4 | 14.5 | 0.00 | 0.00 | 0.00 | 59 | 1014.9 |
| 20260906133033 | 22 | 242 | 4.8 | 14.5 | 0.00 | 0.00 | 0.00 | 56 | 1014.8 |
| 20260906132534 | 23 | 234 | 0.0 | 9.7 | 0.00 | 0.00 | 0.00 | 53 | 1014.7 |
| 20260906132259 | 23 | 234 | 0.0 | 1.6 | 0.00 | 0.00 | 0.00 | 51 | 1014.4 |
| 20260906131800 | 23 | 234 | 1.6 | 4.8 | 0.00 | 0.00 | 0.00 | 50 | 1014.3 |
| 20260906131028 | 24 | 234 | 4.8 | 6.4 | 0.00 | 0.00 | 0.00 | 47 | 1014.4 |
| 20260906130527 | 24 | 234 | 3.2 | 6.4 | 0.00 | 0.00 | 0.00 | 44 | 1014.4 |
| 20260906130027 | 24 | 234 | 1.6 | 4.8 | 0.00 | 0.00 | 0.00 | 41 | 1014.1 |
| 20260906125526 | 24 | 234 | 0.0 | 1.6 | 0.00 | 0.00 | 0.00 | 40 | 1013.7 |
| 20260906125024 | 24 | 234 | 0.0 | 3.2 | 0.00 | 0.00 | 0.00 | 40 | 1013.5 |
| 20260906124522 | 24 | 234 | 1.6 | 3.2 | 0.00 | 0.00 | 0.00 | 40 | 1013.4 |
| 20260906124023 | 24 | 234 | 0.0 | 3.2 | 0.00 | 0.00 | 0.00 | 40 | 1013.2 |
| 20260906123523 | 24 | 234 | 0.0 | 1.6 | 0.00 | 0.00 | 0.00 | 40 | 1013.3 |
| 20260906123018 | 24 | 234 | 0.0 | 3.2 | 0.00 | 0.00 | 0.00 | 40 | 1013.2 |
| 20260906122519 | 24 | 234 | 1.6 | 4.8 | 0.00 | 0.00 | 0.00 | 40 | 1013.2 |
| 20260906122022 | 24 | 234 | 1.6 | 4.8 | 0.00 | 0.00 | 0.00 | 40 | 1013.2 |
| 20260906121517 | 24 | 234 | 0.0 | 3.2 | 0.00 | 0.00 | 0.00 | 40 | 1013.2 |
| 20260906121248 | 24 | 234 | 0.0 | 1.6 | 0.00 | 0.00 | 0.00 | 41 | 1013.2 |
| 20260906120516 | 24 | 234 | 1.6 | 3.2 | 0.00 | 0.00 | 0.00 | 40 | 1013.1 |
| 20260906120015 | 24 | 234 | 1.6 | 3.2 | 0.00 | 0.00 | 0.00 | 40 | 1013.1 |
| 20260906115515 | 24 | 234 | 0.0 | 3.2 | 0.00 | 0.00 | 0.00 | 41 | 1013.2 |
| 20260906115013 | 23 | 234 | 0.0 | 0.0 | 0.00 | 0.00 | 0.00 | 41 | 1013.3 |
| 20260906114745 | 23 | 234 | 0.0 | 0.0 | 0.00 | 0.00 | 0.00 | 41 | 1013.3 |
| 20260906114011 | 23 | 234 | 0.0 | 0.0 | 0.00 | 0.00 | 0.00 | 41 | 1013.3 |
| 20260906113512 | 24 | 234 | 0.0 | 1.6 | 0.00 | 0.00 | 0.00 | 41 | 1013.3 |
| 20260906113237 | 24 | 234 | 0.0 | 3.2 | 0.00 | 0.00 | 0.00 | 41 | 1013.4 |
| 20260906112507 | 24 | 234 | 0.0 | 3.2 | 0.00 | 0.00 | 0.00 | 42 | 1013.4 |
| 20260906112007 | 24 | 234 | 0.0 | 0.0 | 0.00 | 0.00 | 0.00 | 43 | 1013.3 |
| 20260906111508 | 24 | 234 | 0.0 | 0.0 | 0.00 | 0.00 | 0.00 | 43 | 1013.3 |
| 20260906111003 | 24 | 234 | 0.0 | 0.0 | 0.00 | 0.00 | 0.00 | 43 | 1013.3 |
| 20260906110504 | 24 | 234 | 0.0 | 0.0 | 0.00 | 0.00 | 0.00 | 43 | 1013.3 |
| 20260906110004 | 24 | 234 | 0.0 | 0.0 | 0.00 | 0.00 | 0.00 | 43 | 1013.3 |
| 20260906105504 | 24 | 234 | 0.0 | 0.0 | 0.00 | 0.00 | 0.00 | 43 | 1013.3 |
| 20260906105003 | 24 | 234 | 0.0 | 0.0 | 0.00 | 0.00 | 0.00 | 43 | 1013.4 |
| 20260906104502 | 24 | 234 | 0.0 | 0.0 | 0.00 | 0.00 | 0.00 | 43 | 1013.3 |
| 20260906104002 | 24 | 234 | 0.0 | 0.0 | 0.00 | 0.00 | 0.00 | 43 | 1013.3 |
| 20260906103503 | 23 | 234 | 0.0 | 0.0 | 0.00 | 0.00 | 0.00 | 43 | 1013.3 |
| 20260906103235 | 23 | 234 | 0.0 | 0.0 | 0.00 | 0.00 | 0.00 | 43 | 1013.3 |
| 20260906102503 | 23 | 234 | 0.0 | 0.0 | 0.00 | 0.00 | 0.00 | 42 | 1013.4 |
| 20260906102000 | 23 | 234 | 0.0 | 0.0 | 0.00 | 0.00 | 0.00 | 42 | 1013.5 |
| 20260906101500 | 24 | 234 | 0.0 | 0.0 | 0.00 | 0.00 | 0.00 | 41 | 1013.5 |
| 20260906101001 | 24 | 234 | 0.0 | 0.0 | 0.00 | 0.00 | 0.00 | 41 | 1013.5 |
| 20260906100513 | 24 | 234 | 0.0 | 0.0 | 0.00 | 0.00 | 0.00 | 41 | 1013.4 |
| 20260906095959 | 24 | 234 | 0.0 | 0.0 | 0.00 | 0.00 | 0.00 | 41 | 1013.4 |
| 20260906095458 | 24 | 234 | 0.0 | 0.0 | 0.00 | 0.00 | 0.00 | 41 | 1013.5 |
| 20260906094957 | 24 | 234 | 0.0 | 0.0 | 0.00 | 0.00 | 0.00 | 41 | 1013.5 |
| 20260906094458 | 24 | 234 | 0.0 | 0.0 | 0.00 | 0.00 | 0.00 | 41 | 1013.6 |
| 20260906093955 | 24 | 234 | 0.0 | 0.0 | 0.00 | 0.00 | 0.00 | 41 | 1013.6 |
| 20260906093450 | 24 | 234 | 0.0 | 1.6 | 0.00 | 0.00 | 0.00 | 42 | 1013.7 |
| 20260906092945 | 24 | 234 | 0.0 | 3.2 | 0.00 | 0.00 | 0.00 | 42 | 1013.5 |
| 20260906092715 | 24 | 234 | 0.0 | 3.2 | 0.00 | 0.00 | 0.00 | 43 | 1013.5 |
| 20260906091938 | 24 | 234 | 0.0 | 1.6 | 0.00 | 0.00 | 0.00 | 43 | 1013.6 |
| 20260906091437 | 23 | 234 | 0.0 | 1.6 | 0.00 | 0.00 | 0.00 | 43 | 1013.6 |
| 20260906090934 | 23 | 234 | 0.0 | 1.6 | 0.00 | 0.00 | 0.00 | 44 | 1013.7 |
| 20260906090435 | 23 | 234 | 0.0 | 3.2 | 0.00 | 0.00 | 0.00 | 44 | 1013.7 |
| 20260906085934 | 23 | 234 | 0.0 | 3.2 | 0.00 | 0.00 | 0.00 | 44 | 1013.7 |
| 20260906085434 | 23 | 234 | 0.0 | 0.0 | 0.00 | 0.00 | 0.00 | 43 | 1013.7 |
| 20260906084934 | 23 | 234 | 0.0 | 4.8 | 0.00 | 0.00 | 0.00 | 42 | 1013.7 |
| 20260906084432 | 24 | 234 | 0.0 | 4.8 | 0.00 | 0.00 | 0.00 | 42 | 1013.8 |
| 20260906083931 | 24 | 234 | 0.0 | 4.8 | 0.00 | 0.00 | 0.00 | 42 | 1013.7 |
| 20260906083430 | 24 | 234 | 0.0 | 4.8 | 0.00 | 0.00 | 0.00 | 42 | 1013.8 |
| 20260906082930 | 23 | 234 | 0.0 | 0.0 | 0.00 | 0.00 | 0.00 | 42 | 1013.7 |
| 20260906082427 | 23 | 234 | 0.0 | 0.0 | 0.00 | 0.00 | 0.00 | 42 | 1013.7 |
| 20260906081928 | 23 | 234 | 0.0 | 0.0 | 0.00 | 0.00 | 0.00 | 43 | 1013.7 |
| 20260906081434 | 23 | 234 | 0.0 | 0.0 | 0.00 | 0.00 | 0.00 | 43 | 1013.8 |
| 20260906081152 | 23 | 234 | 0.0 | 0.0 | 0.00 | 0.00 | 0.00 | 43 | 1013.8 |
| 20260906080419 | 23 | 234 | 0.0 | 0.0 | 0.00 | 0.00 | 0.00 | 43 | 1013.7 |
| 20260906075919 | 23 | 234 | 0.0 | 0.0 | 0.00 | 0.00 | 0.00 | 43 | 1013.7 |
| 20260906075419 | 23 | 234 | 0.0 | 0.0 | 0.00 | 0.00 | 0.00 | 42 | 1013.7 |
| 20260906074921 | 23 | 234 | 0.0 | 0.0 | 0.00 | 0.00 | 0.00 | 42 | 1013.6 |
| 20260906074417 | 23 | 234 | 0.0 | 0.0 | 0.00 | 0.00 | 0.00 | 41 | 1013.7 |
| 20260906074149 | 23 | 234 | 0.0 | 0.0 | 0.00 | 0.00 | 0.00 | 41 | 1013.7 |
| 20260906073415 | 23 | 234 | 0.0 | 0.0 | 0.00 | 0.00 | 0.00 | 40 | 1013.8 |
| 20260906072913 | 23 | 234 | 0.0 | 0.0 | 0.00 | 0.00 | 0.00 | 40 | 1013.9 |
| 20260906072414 | 24 | 234 | 0.0 | 0.0 | 0.00 | 0.00 | 0.00 | 39 | 1013.8 |
| 20260906071908 | 24 | 234 | 0.0 | 0.0 | 0.00 | 0.00 | 0.00 | 38 | 1013.6 |
| 20260906071406 | 24 | 234 | 0.0 | 0.0 | 0.00 | 0.00 | 0.00 | 38 | 1013.6 |
| 20260906071135 | 24 | 234 | 0.0 | 0.0 | 0.00 | 0.00 | 0.00 | 38 | 1013.6 |
| 20260906070400 | 24 | 234 | 0.0 | 0.0 | 0.00 | 0.00 | 0.00 | 38 | 1013.6 |
| 20260906065901 | 23 | 234 | 0.0 | 0.0 | 0.00 | 0.00 | 0.00 | 38 | 1013.6 |
| 20260906065631 | 23 | 234 | 0.0 | 0.0 | 0.00 | 0.00 | 0.00 | 38 | 1013.6 |
| 20260906064900 | 24 | 234 | 0.0 | 0.0 | 0.00 | 0.00 | 0.00 | 37 | 1013.5 |
| 20260906064358 | 24 | 234 | 0.0 | 0.0 | 0.00 | 0.00 | 0.00 | 36 | 1013.5 |
| 20260906063859 | 24 | 234 | 0.0 | 0.0 | 0.00 | 0.00 | 0.00 | 36 | 1013.5 |
| 20260906063357 | 24 | 234 | 0.0 | 0.0 | 0.00 | 0.00 | 0.00 | 35 | 1013.6 |
| 20260906062854 | 24 | 234 | 0.0 | 0.0 | 0.00 | 0.00 | 0.00 | 35 | 1013.6 |
| 20260906062627 | 24 | 234 | 0.0 | 0.0 | 0.00 | 0.00 | 0.00 | 35 | 1013.6 |
| 20260906061853 | 25 | 234 | 0.0 | 0.0 | 0.00 | 0.00 | 0.00 | 35 | 1013.7 |
| 20260906061352 | 25 | 234 | 0.0 | 3.2 | 0.00 | 0.00 | 0.00 | 35 | 1013.8 |
| 20260906060852 | 25 | 234 | 0.0 | 3.2 | 0.00 | 0.00 | 0.00 | 36 | 1013.8 |
| 20260906060345 | 25 | 234 | 0.0 | 3.2 | 0.00 | 0.00 | 0.00 | 36 | 1013.8 |
| 20260906055843 | 25 | 234 | 1.6 | 3.2 | 0.00 | 0.00 | 0.00 | 37 | 1013.8 |
| 20260906055344 | 25 | 234 | 1.6 | 4.8 | 0.00 | 0.00 | 0.00 | 36 | 1013.8 |
| 20260906054339 | 25 | 234 | 1.6 | 4.8 | 0.00 | 0.00 | 0.00 | 36 | 1013.8 |
| 20260906053839 | 25 | 234 | 1.6 | 4.8 | 0.00 | 0.00 | 0.00 | 35 | 1013.7 |
| 20260906053335 | 25 | 234 | 0.0 | 4.8 | 0.00 | 0.00 | 0.00 | 35 | 1013.7 |
| 20260906052836 | 25 | 234 | 0.0 | 3.2 | 0.00 | 0.00 | 0.00 | 34 | 1013.7 |
| 20260906052334 | 25 | 234 | 1.6 | 4.8 | 0.00 | 0.00 | 0.00 | 34 | 1013.7 |
| 20260906051835 | 25 | 234 | 1.6 | 4.8 | 0.00 | 0.00 | 0.00 | 33 | 1013.6 |
| 20260906051607 | 26 | 234 | 0.0 | 1.6 | 0.00 | 0.00 | 0.00 | 32 | 1013.7 |
| 20260906051106 | 26 | 234 | 1.6 | 6.4 | 0.00 | 0.00 | 0.00 | 31 | 1013.7 |
| 20260906050617 | 26 | 234 | 3.2 | 6.4 | 0.00 | 0.00 | 0.00 | 31 | 1013.7 |
| 20260906045831 | 26 | 234 | 1.6 | 6.4 | 0.00 | 0.00 | 0.00 | 30 | 1013.6 |
| 20260906045332 | 26 | 234 | 0.0 | 3.2 | 0.00 | 0.00 | 0.00 | 30 | 1013.6 |
| 20260906044827 | 26 | 234 | 1.6 | 4.8 | 0.00 | 0.00 | 0.00 | 30 | 1013.6 |
| 20260906044327 | 26 | 234 | 1.6 | 4.8 | 0.00 | 0.00 | 0.00 | 29 | 1013.6 |
| 20260906043827 | 26 | 234 | 1.6 | 4.8 | 0.00 | 0.00 | 0.00 | 29 | 1013.6 |
| 20260906043322 | 26 | 234 | 4.8 | 9.7 | 0.00 | 0.00 | 0.00 | 28 | 1013.6 |
| 20260906042822 | 27 | 234 | 6.4 | 12.9 | 0.00 | 0.00 | 0.00 | 28 | 1013.6 |
| 20260906042555 | 27 | 234 | 6.4 | 12.9 | 0.00 | 0.00 | 0.00 | 28 | 1013.5 |
| 20260906041820 | 27 | 235 | 4.8 | 9.7 | 0.00 | 0.00 | 0.00 | 28 | 1013.4 |
| 20260906041321 | 27 | 235 | 4.8 | 11.3 | 0.00 | 0.00 | 0.00 | 27 | 1013.4 |
| 20260906040821 | 27 | 235 | 4.8 | 11.3 | 0.00 | 0.00 | 0.00 | 27 | 1013.3 |
| 20260906040319 | 27 | 234 | 4.8 | 11.3 | 0.00 | 0.00 | 0.00 | 27 | 1013.2 |
| 20260906035819 | 27 | 234 | 3.2 | 9.7 | 0.00 | 0.00 | 0.00 | 27 | 1013.2 |
| 20260906035319 | 27 | 233 | 4.8 | 11.3 | 0.00 | 0.00 | 0.00 | 27 | 1013.2 |
| 20260906035045 | 27 | 233 | 4.8 | 11.3 | 0.00 | 0.00 | 0.00 | 27 | 1013.2 |
| 20260906034315 | 27 | 232 | 6.4 | 9.7 | 0.00 | 0.00 | 0.00 | 26 | 1013.2 |
| 20260906033310 | 28 | 232 | 6.4 | 11.3 | 0.00 | 0.00 | 0.00 | 26 | 1013.2 |
| 20260906032812 | 28 | 233 | 4.8 | 11.3 | 0.00 | 0.00 | 0.00 | 25 | 1013.2 |
| 20260906032311 | 28 | 232 | 4.8 | 11.3 | 0.00 | 0.00 | 0.00 | 25 | 1013.1 |
| 20260906031808 | 28 | 232 | 6.4 | 11.3 | 0.00 | 0.00 | 0.00 | 24 | 1013.1 |
| 20260906031308 | 28 | 232 | 6.4 | 12.9 | 0.00 | 0.00 | 0.00 | 24 | 1013.1 |
| 20260906030305 | 28 | 229 | 6.4 | 14.5 | 0.00 | 0.00 | 0.00 | 25 | 1012.9 |
| 20260906025802 | 28 | 233 | 8.0 | 14.5 | 0.00 | 0.00 | 0.00 | 25 | 1012.9 |
| 20260906025306 | 28 | 232 | 8.0 | 17.7 | 0.00 | 0.00 | 0.00 | 26 | 1012.9 |
| 20260906024802 | 28 | 231 | 8.0 | 17.7 | 0.00 | 0.00 | 0.00 | 26 | 1012.9 |
| 20260906024300 | 28 | 235 | 8.0 | 16.1 | 0.00 | 0.00 | 0.00 | 27 | 1012.9 |
| 20260906024030 | 28 | 236 | 9.7 | 16.1 | 0.00 | 0.00 | 0.00 | 27 | 1012.9 |
| 20260906023253 | 29 | 229 | 8.0 | 16.1 | 0.00 | 0.00 | 0.00 | 27 | 1012.9 |
| 20260906022250 | 29 | 229 | 8.0 | 16.1 | 0.00 | 0.00 | 0.00 | 28 | 1012.8 |
| 20260906021749 | 29 | 229 | 9.7 | 16.1 | 0.00 | 0.00 | 0.00 | 28 | 1012.7 |
| 20260906021248 | 29 | 232 | 9.7 | 19.3 | 0.00 | 0.00 | 0.00 | 28 | 1012.7 |
| 20260906020746 | 30 | 224 | 9.7 | 19.3 | 0.00 | 0.00 | 0.00 | 28 | 1012.6 |
| 20260906020517 | 30 | 230 | 8.0 | 17.7 | 0.00 | 0.00 | 0.00 | 28 | 1012.6 |
| 20260906015747 | 30 | 227 | 9.7 | 16.1 | 0.00 | 0.00 | 0.00 | 27 | 1012.6 |
| 20260906015247 | 30 | 232 | 9.7 | 16.1 | 0.00 | 0.00 | 0.00 | 27 | 1012.6 |
| 20260906014743 | 30 | 224 | 8.0 | 16.1 | 0.00 | 0.00 | 0.00 | 27 | 1012.6 |
| 20260906014242 | 30 | 225 | 9.7 | 16.1 | 0.00 | 0.00 | 0.00 | 27 | 1012.5 |
| 20260906013744 | 31 | 228 | 9.7 | 16.1 | 0.00 | 0.00 | 0.00 | 28 | 1012.5 |
| 20260906013239 | 31 | 224 | 9.7 | 14.5 | 0.00 | 0.00 | 0.00 | 27 | 1012.6 |
| 20260906012738 | 31 | 226 | 9.7 | 17.7 | 0.00 | 0.00 | 0.00 | 27 | 1012.6 |
| 20260906012240 | 31 | 223 | 9.7 | 17.7 | 0.00 | 0.00 | 0.00 | 28 | 1012.6 |
| 20260906011733 | 31 | 224 | 8.0 | 14.5 | 0.00 | 0.00 | 0.00 | 27 | 1012.6 |
| 20260906011234 | 31 | 223 | 8.0 | 14.5 | 0.00 | 0.00 | 0.00 | 29 | 1012.6 |
| 20260906010732 | 31 | 222 | 8.0 | 14.5 | 0.00 | 0.00 | 0.00 | 28 | 1012.5 |
| 20260906010233 | 31 | 234 | 9.7 | 17.7 | 0.00 | 0.00 | 0.00 | 28 | 1012.5 |
| 20260906005733 | 31 | 221 | 11.3 | 17.7 | 0.00 | 0.00 | 0.00 | 28 | 1012.5 |
| 20260906005234 | 31 | 220 | 9.7 | 17.7 | 0.00 | 0.00 | 0.00 | 28 | 1012.5 |
| 20260906004733 | 31 | 226 | 11.3 | 19.3 | 0.00 | 0.00 | 0.00 | 29 | 1012.5 |
| 20260906004234 | 31 | 223 | 11.3 | 19.3 | 0.00 | 0.00 | 0.00 | 29 | 1012.6 |
| 20260906003734 | 31 | 209 | 11.3 | 20.9 | 0.00 | 0.00 | 0.00 | 28 | 1012.6 |
| 20260906003234 | 32 | 226 | 9.7 | 20.9 | 0.00 | 0.00 | 0.00 | 28 | 1012.5 |
| 20260906002732 | 32 | 226 | 9.7 | 20.9 | 0.00 | 0.00 | 0.00 | 28 | 1012.5 |
| 20260906002505 | 32 | 223 | 9.7 | 20.9 | 0.00 | 0.00 | 0.00 | 26 | 1012.3 |
| 20260906002005 | 32 | 217 | 9.7 | 17.7 | 0.00 | 0.00 | 0.00 | 26 | 1012.3 |
| 20260906001233 | 33 | 246 | 8.0 | 17.7 | 0.00 | 0.00 | 0.00 | 25 | 1012.3 |
| 20260906000733 | 33 | 261 | 6.4 | 14.5 | 0.00 | 0.00 | 0.00 | 24 | 1012.3 |
| 20260906000234 | 33 | 242 | 8.0 | 14.5 | 0.00 | 0.00 | 0.00 | 25 | 1012.2 |
| 20260905235730 | 33 | 222 | 9.7 | 17.7 | 0.00 | 0.00 | 0.00 | 25 | 1012.2 |
| 20260905235230 | 33 | 232 | 9.7 | 17.7 | 0.00 | 0.00 | 0.00 | 25 | 1012.2 |
| 20260905234730 | 33 | 244 | 9.7 | 17.7 | 0.00 | 0.00 | 0.00 | 25 | 1012.2 |
| 20260905234225 | 34 | 257 | 8.0 | 16.1 | 0.00 | 0.00 | 0.00 | 24 | 1012.2 |
| 20260905233724 | 34 | 229 | 6.4 | 16.1 | 0.00 | 0.00 | 0.00 | 24 | 1012.2 |
| 20260905233225 | 34 | 254 | 8.0 | 16.1 | 0.00 | 0.00 | 0.00 | 25 | 1012.1 |
| 20260905232722 | 33 | 255 | 8.0 | 16.1 | 0.00 | 0.00 | 0.00 | 24 | 1012.2 |
| 20260905232223 | 33 | 218 | 8.0 | 14.5 | 0.00 | 0.00 | 0.00 | 22 | 1012.2 |
| 20260905231724 | 33 | 216 | 9.7 | 17.7 | 0.00 | 0.00 | 0.00 | 23 | 1012.2 |
| 20260905231222 | 33 | 248 | 11.3 | 19.3 | 0.00 | 0.00 | 0.00 | 23 | 1012.1 |